Arlington, TX

11:57 PM CST on December 12, 2017 (GMT -0600)
Arlington Municipal

Weather History for KGKY - July, 2013

Change the Weather History Date:

Tuesday, July 16, 2013

  Actual Average (KRBD) Record (KRBD)
Temperature  
Mean Temperature 79 °F -  
Max Temperature 88 °F 93 °F 106 °F (1998)
Min Temperature 71 °F 73 °F 70 °F (2005)
Cooling Degree Days 14    
Growing Degree Days 29 (Base 50)    
Moisture  
Dew Point 71 °F    
Average Humidity 84    
Maximum Humidity 100    
Minimum Humidity 51    
Precipitation  
Precipitation 0.16 in - - ()
Sea Level Pressure  
Sea Level Pressure 30.12 in    
Wind  
Wind Speed 6 mph (East)    
Max Wind Speed 21 mph    
Max Gust Speed 33 mph    
Visibility 10 miles    
Events Rain , Thunderstorm    
Averages and records for this station are not official NWS values.
T = Trace of Precipitation, MM = Missing Value Source: NWS Daily Summary

Daily Weather History Graph

Daily Weather History Graph

Search for Another Location

Airport or City:

Trip Planner

Search our weather history database for the weather conditions in past years. The results will help you decide how hot, cold, wet, or windy it might be!

Date:

Astronomy

Jul. 16, 2013 Rise Set
Actual Time 6:32 AM CDT 8:36 PM CDT
Civil Twilight 6:04 AM CDT 9:04 PM CDT
Nautical Twilight 5:30 AM CDT 9:38 PM CDT
Astronomical Twilight 4:54 AM CDT 10:14 PM CDT
Moon 2:26 PM CDT (7/16) 12:52 AM CDT (7/16)
Length of Visible Light 14h 59m
Length of Day
14h 04m
First Quarter, 56% of the Moon is Illuminated
Jul 16
First Quarter
Jul 22
Full
Jul 29
Last Quarter
Aug 6
New
Aug 14
First Quarter

Hourly Weather History & Observations

Time (CDT) Temp. Heat Index Dew Point Humidity Pressure Visibility Wind Dir Wind Speed Gust Speed Precip Events Conditions
12:53 AM 72.0 °F - 70.0 °F 93% 30.08 in 10.0 mi East 5.8 mph - 0.00 in Rain Light Rain
1:53 AM 72.0 °F - 69.1 °F 91% 30.07 in 10.0 mi ESE 4.6 mph - 0.00 in   Clear
2:53 AM 72.0 °F - 69.1 °F 91% 30.07 in 10.0 mi East 4.6 mph - N/A   Clear
3:13 AM 71.6 °F - 69.8 °F 94% 30.09 in 10.0 mi East 6.9 mph - N/A   Mostly Cloudy
3:53 AM 71.1 °F - 69.1 °F 93% 30.07 in 10.0 mi ENE 4.6 mph - 0.00 in Rain Light Rain
4:50 AM 71.6 °F - 69.8 °F 94% 30.08 in 10.0 mi ENE 5.8 mph - 0.01 in Rain Light Rain
4:53 AM 71.1 °F - 69.1 °F 93% 30.06 in 10.0 mi ENE 5.8 mph - 0.01 in Rain Light Rain
5:01 AM 71.6 °F - 69.8 °F 94% 30.09 in 10.0 mi ENE 5.8 mph - 0.00 in   Scattered Clouds
5:53 AM 72.0 °F - 70.0 °F 93% 30.08 in 10.0 mi ESE 3.5 mph - 0.00 in Rain Light Rain
6:53 AM 72.0 °F - 70.0 °F 93% 30.11 in 10.0 mi ESE 4.6 mph - 0.01 in   Mostly Cloudy
6:58 AM 71.6 °F - 71.6 °F 100% 30.13 in 10.0 mi East 4.6 mph - 0.00 in Rain Light Rain
7:53 AM 73.0 °F - 71.1 °F 93% 30.12 in 10.0 mi East 4.6 mph - 0.01 in   Overcast
8:01 AM 73.4 °F - 71.6 °F 94% 30.14 in 10.0 mi East 5.8 mph - N/A   Overcast
8:12 AM 73.4 °F - 71.6 °F 94% 30.14 in 10.0 mi East 8.1 mph - N/A   Mostly Cloudy
8:20 AM 73.4 °F - 71.6 °F 94% 30.14 in 10.0 mi ENE 9.2 mph - N/A   Scattered Clouds
8:42 AM 73.4 °F - 71.6 °F 94% 30.15 in 10.0 mi ESE 8.1 mph - N/A   Mostly Cloudy
8:50 AM 73.4 °F - 71.6 °F 94% 30.15 in 10.0 mi ESE 6.9 mph - N/A   Mostly Cloudy
8:53 AM 73.9 °F - 71.1 °F 91% 30.13 in 10.0 mi East 5.8 mph - N/A   Mostly Cloudy
9:35 AM 75.2 °F - 71.6 °F 89% 30.15 in 10.0 mi East 5.8 mph - N/A   Scattered Clouds
9:53 AM 75.9 °F - 72.0 °F 87% 30.13 in 10.0 mi ESE 6.9 mph - N/A   Partly Cloudy
10:31 AM 77.0 °F - 71.6 °F 83% 30.16 in 10.0 mi East 8.1 mph - N/A   Mostly Cloudy
10:51 AM 78.8 °F - 71.6 °F 78% 30.16 in 10.0 mi East 9.2 mph - N/A   Overcast
10:53 AM 78.1 °F - 72.0 °F 81% 30.14 in 10.0 mi East 10.4 mph - N/A   Overcast
11:18 AM 78.8 °F - 71.6 °F 78% 30.16 in 10.0 mi East 9.2 mph - N/A   Scattered Clouds
11:53 AM 79.0 °F - 72.0 °F 79% 30.14 in 10.0 mi East 9.2 mph - N/A   Partly Cloudy
12:53 PM 82.0 °F 86.7 °F 72.0 °F 71% 30.13 in 10.0 mi East 10.4 mph - N/A   Partly Cloudy
1:53 PM 84.0 °F 88.4 °F 70.0 °F 63% 30.11 in 10.0 mi East 11.5 mph - N/A   Clear
2:53 PM 86.0 °F 90.7 °F 70.0 °F 59% 30.10 in 10.0 mi East 11.5 mph - N/A   Scattered Clouds
3:53 PM 87.1 °F 89.9 °F 66.9 °F 51% 30.08 in 10.0 mi East 11.5 mph - N/A   Clear
4:53 PM 87.1 °F 90.6 °F 68.0 °F 53% 30.07 in 10.0 mi East 3.5 mph - N/A   Clear
5:53 PM 87.1 °F 90.6 °F 68.0 °F 53% 30.06 in 10.0 mi Variable 4.6 mph - N/A   Clear
6:01 PM 87.8 °F 92.6 °F 69.8 °F 55% 30.09 in 10.0 mi ESE 8.1 mph - N/A Thunderstorm Partly Cloudy
6:29 PM 73.4 °F - 71.6 °F 94% 30.12 in 2.0 mi ENE 20.7 mph 33.4 mph 0.09 in Rain , Thunderstorm Heavy Thunderstorms and Rain
6:41 PM 73.4 °F - 71.6 °F 94% 30.13 in 6.0 mi ENE 8.1 mph - 0.13 in Rain , Thunderstorm Light Thunderstorms and Rain
6:53 PM 75.9 °F - 71.1 °F 85% 30.10 in 10.0 mi ENE 9.2 mph - 0.13 in Rain , Thunderstorm Light Thunderstorms and Rain
7:07 PM 75.2 °F - 71.6 °F 89% 30.12 in 10.0 mi ENE 9.2 mph - 0.00 in   Scattered Clouds
7:53 PM 75.9 °F - 71.1 °F 85% 30.10 in 10.0 mi NE 5.8 mph - 0.00 in   Clear
8:53 PM 75.9 °F - 70.0 °F 82% 30.12 in 10.0 mi Calm Calm - 0.00 in   Partly Cloudy
9:53 PM 73.9 °F - 72.0 °F 93% 30.14 in 10.0 mi Calm Calm - N/A   Clear
10:53 PM 73.9 °F - 72.0 °F 93% 30.16 in 10.0 mi Calm Calm - N/A   Scattered Clouds
11:53 PM 75.9 °F - 71.1 °F 85% 30.18 in 10.0 mi East 3.5 mph - N/A   Overcast